Weather Roundup
Issued by NWS Chicago, IL

Home | Current Version | Previous Version | Text Only | Print | Product List | Glossary On
Versions: 1 2 3 4 5 6 7 8 9 10 11 12 13 14 15 16 17 18 19 20 21 22 23 24 25 26 27 28 29 30 31 32 33 34 35 36 37 38 39 40 41 42 43 44 45 46 47 48 49 50
000
NZUS59 KLOT 110408
HRRLOT

CHICAGO AREA WEATHER ROUNDUP
NATIONAL WEATHER SERVICE CHICAGO/ROMEOVILLE IL
1000 PM CST SUN DEC 10 2017

NOTE: "FAIR" INDICATES FEW OR NO CLOUDS BELOW 12,000 FEET WITH NO
SIGNIFICANT WEATHER AND/OR OBSTRUCTIONS TO VISIBILITY.

* THESE STATIONS ARE NOT UNDER NWS QUALITY CONTROL. THEY ALSO MAY NOT
  REPORT WEATHER SUCH AS PRECIPITATION OR FOG.

ILZ005-006-012>014-019>023-110500-
NORTHEAST ILLINOIS

CITY           SKY/WX    TMP DP  RH WIND       PRES   REMARKS
OHARE          CLOUDY    29  19  66 N7        30.07S WCI  22
MIDWAY         CLOUDY    30  20  66 N7        30.08S WCI  23
AURORA         PTCLDY    19  16  88 W5        30.08S WCI  12
LANSING*       CLOUDY    29  21  71 N6        30.09S WCI  23
WAUKEGAN       CLOUDY    27  19  72 NW5       30.07S WCI  22
DUPAGE AIRPORT MOCLDY    24  19  81 CALM      30.07S
WHEELING       CLOUDY    29  20  69 N6        30.09S WCI  23
KANKAKEE*      CLEAR     25  19  76 W3        30.10S
MORRIS*        CLEAR     23  18  83 CALM      30.09R
LEWIS AIRPORT* MOCLDY    25  20  83 W3        30.08S
NORTHERLY ISL    N/A     29  19  66 NW12        N/A  WCI  19
$$

WIZ051-052-058>065-066-070>072-110500-
SOUTHEAST WISCONSIN

CITY           SKY/WX    TMP DP  RH WIND       PRES   REMARKS
MILWAUKEE      CLOUDY    28  17  63 NW9       30.07R WCI  19
KENOSHA*       CLOUDY    28  17  63 NW6       30.07S WCI  22
RACINE*        CLOUDY    27  17  66 NW7       30.08F WCI  19
BURLINGTON     CLOUDY    34  29  83 NW8       30.07R WCI  27
WAUKESHA       CLOUDY    25  16  68 NW8       30.07S WCI  16
WEST BEND      CLOUDY    27  19  74 NW3       30.05S
$$

INZ001>003-010>013-019-020-110500-
NORTHWEST INDIANA

CITY           SKY/WX    TMP DP  RH WIND       PRES   REMARKS
GARY*          MOCLDY    32  19  59 NW12      30.10R WCI  23
MICHIGAN CITY* NOT AVBL
RENSSELAER*    NOT AVBL
VALPARAISO     CLOUDY    31  21  66 NW6       30.07R WCI  25
$$

LMZ740>746-110500-
SOUTHERN LAKE MICHIGAN

STATION/POSITION TIME  SKY/WX   TEMP WIND        PRES    VSBY
                                AIR  DIR/SP/G
                 (UTC)          (F)  (DEG/KT/KT) (MB)    (MI)
HARRISON CRIB    0340            30  320/ 15/ 18   N/A
BURNHAM HARBOR   0400            29  340/  6/ 14   N/A
CALUMET HARBOR   0348            29  300/  9/ 12 1018.1R
BURNS HARBOR     0340            31  330/ 10/ 18 1018.6S
MICHIGAN CITY    0340            31  300/ 18/ 20   N/A
$$

ABBREVIATIONS USED IN REMARKS
   TC - TEMPERATURE IN CELSIUS
  WCI - WIND CHILL INDEX
   HX - HEAT INDEX
  VSB - VISIBILITY
$$




USA.gov is the U.S. government's official web portal to all federal, state and local government web resources and services.